Location: Quaker Farms
(41.4276°N, 73.1557°W)
Time: 13:46:37
(UTC+00:00)

Vanguard 1 - All Passes

Search period start: 22 June 2021 00:00
Search period end: 02 July 2021 00:00
Orbit: 650 x 3833 km, 34.2° (Epoch: 21 June)

Date Brightness Start Highest point End Pass type
(mag) Time Alt. Az. Time Alt. Az. Time Alt. Az.
22 Jun - 00:28:00 10° SW 00:49:45 50° SSE 01:07:55 10° E visible
22 Jun - 02:52:15 10° WSW 03:15:13 68° S 03:30:09 10° E visible
22 Jun - 05:19:54 10° W 05:39:20 60° SSW 05:50:15 10° ESE visible
22 Jun - 07:48:36 10° W 08:00:01 27° SW 08:07:19 10° S visible
22 Jun - 22:29:01 10° S 22:46:22 31° SE 23:03:52 10° E daylight
23 Jun - 00:48:28 10° SW 01:10:53 57° SSE 01:29:11 10° E visible
23 Jun - 03:13:39 10° WSW 03:36:31 69° S 03:51:05 10° E visible
23 Jun - 05:41:34 10° W 06:00:12 54° SSW 06:10:46 10° SE visible
23 Jun - 08:11:03 10° W 08:20:11 20° SW 08:26:33 10° S visible
23 Jun - 20:40:31 10° SE 20:44:50 11° ESE 20:49:17 10° ESE daylight
23 Jun - 22:48:16 10° SSW 23:07:03 38° SE 23:25:56 10° E daylight
24 Jun - 01:09:13 10° SW 01:32:08 62° SSE 01:50:21 10° E visible
24 Jun - 03:35:08 10° W 03:57:47 69° S 04:11:57 10° ESE visible
24 Jun - 06:03:18 10° W 06:20:54 47° SSW 06:31:06 10° SE visible
24 Jun - 08:34:31 10° W 08:40:12 14° SW 08:44:44 10° SSW visible
24 Jun - 20:54:01 10° SSE 21:05:05 17° SE 21:17:10 10° E daylight
24 Jun - 23:08:00 10° SSW 23:27:52 45° SE 23:47:39 10° E daylight
25 Jun - 01:30:11 10° WSW 01:53:26 67° SSE 02:11:27 10° E visible
25 Jun - 03:56:41 10° W 04:18:59 66° SSW 04:32:45 10° ESE visible
25 Jun - 06:25:08 10° W 06:41:26 39° SW 06:51:13 10° SSE visible
25 Jun - 21:11:23 10° S 21:25:24 24° SE 21:41:08 10° E daylight
25 Jun - 23:28:08 10° SW 23:48:49 52° SSE 00:09:09 10° E daylight
26 Jun - 01:51:21 10° WSW 02:14:48 69° S 02:32:31 10° E visible
26 Jun - 04:18:17 10° W 04:40:05 62° SSW 04:53:26 10° ESE visible
26 Jun - 06:47:09 10° W 07:01:46 31° SW 07:11:02 10° SSE visible
26 Jun - 21:29:58 10° S 21:45:48 30° SE 22:03:55 10° E daylight
26 Jun - 23:48:34 10° SW 00:09:53 58° SSE 00:30:30 10° E daylight
27 Jun - 02:12:39 10° WSW 02:36:12 71° S 02:53:32 10° E visible
27 Jun - 04:39:56 10° W 05:01:03 56° SSW 05:14:00 10° SE visible
27 Jun - 07:09:33 10° W 07:21:57 24° SW 07:30:23 10° S visible
27 Jun - 21:49:15 10° SSW 22:06:19 38° SE 22:26:05 10° E daylight
28 Jun - 00:09:15 10° SW 00:31:07 63° SSE 00:51:47 10° E daylight
28 Jun - 02:34:03 10° W 02:57:34 70° S 03:14:29 10° ESE visible
28 Jun - 05:01:38 10° W 05:21:51 50° SSW 05:34:21 10° SE visible
28 Jun - 07:32:41 10° W 07:42:00 17° SW 07:48:57 10° SSW visible
28 Jun - 19:55:49 10° SSE 20:05:09 16° SE 20:15:54 10° E daylight
28 Jun - 22:09:01 10° SSW 22:26:59 45° SE 22:47:54 10° E daylight
29 Jun - 00:30:09 10° WSW 00:52:26 67° SSE 01:13:00 10° E visible
29 Jun - 02:55:31 10° W 03:18:52 68° SSW 03:35:21 10° ESE visible
29 Jun - 05:23:26 10° W 05:42:27 42° SW 05:54:30 10° SSE visible
29 Jun - 07:58:02 10° WSW 08:01:55 11° WSW 08:05:21 10° SW visible
29 Jun - 20:13:08 10° S 20:25:17 22° SE 20:40:09 10° E daylight
29 Jun - 22:29:07 10° SW 22:47:49 52° SSE 23:09:31 10° E daylight
30 Jun - 00:51:13 10° WSW 01:13:50 70° S 01:34:11 10° E visible
30 Jun - 03:17:01 10° W 03:40:04 64° SSW 03:56:06 10° ESE visible
30 Jun - 05:45:26 10° W 06:02:52 35° SW 06:14:20 10° SSE visible
30 Jun - 20:31:45 10° S 20:45:30 29° SE 21:03:05 10° E daylight
30 Jun - 22:49:31 10° SW 23:08:49 58° SSE 23:31:00 10° E daylight
01 Jul - 01:12:24 10° WSW 01:35:16 71° S 01:55:18 10° E visible
01 Jul - 03:38:35 10° W 04:01:08 58° SSW 04:16:42 10° SE visible
01 Jul - 06:07:46 10° W 06:23:06 28° SW 06:33:44 10° S visible
01 Jul - 20:51:03 10° SSW 21:05:52 36° SE 21:25:23 10° E daylight
